Lid_Strength_Index
0 0 2 4 9 11 14 12 9 9 10 7 6 7 9 7 9 12 2 0 0 0 -0 -0 -1 -1 -1 -1 -1 -1 -1 -1 -1 -1 -1 -1 -1 -1 -1 -1 -1 -1 -1 -1 -1 -1 -1 -1 -1
3 1 4 8 12 14 13 10 11 8 7 6 6 7 8 9 5 4 3 0 0 -0 -1 -0 -1 -1 -1 -1 -1 -1 -1 -1 -1 -1 -1 -1 -1 -1 -1 -1 -1 -1 -1 -1 -1 -1 -1 -1 -1
2 4 7 10 13 14 13 10 9 7 6 6 7 5 6 7 4 3 1 0 -0 0 -1 -0 -1 -1 -1 -1 -1 -1 -1 -1 -1 -1 -1 -1 -1 -1 -1 -1 -1 -1 -1 -1 -1 -1 -1 -1 -1
6 7 9 11 13 11 11 10 7 8 6 6 6 9 5 3 3 2 0 0 0 0 -0 -1 -1 -1 -1 -1 -1 -1 -1 -1 -1 -1 -1 -1 -1 -1 -1 -1 -1 -1 -1 -1 -1 -1 -1 -1 -1
8 10 12 15 14 11 10 7 7 8 8 7 6 9 7 3 1 1 1 0 1 0 -0 -0 -1 -1 -1 -1 -1 -1 -1 -1 -1 -1 -1 -1 -1 -1 -1 -1 -1 -1 -1 -1 -1 -1 -1 -1 -1
11 11 14 16 14 12 9 7 7 8 7 7 7 8 7 2 2 1 1 1 -0 0 -0 0 -1 -1 -1 -1 -1 -1 -1 -1 -1 -1 -1 -1 -1 -1 -1 -1 -1 -1 -1 -1 -1 -1 -1 -2 -2
11 13 14 16 14 13 10 6 7 8 8 8 5 9 6 4 2 1 1 0 0 -0 0 0 -0 -1 -1 -1 -1 -1 -1 -1 -1 -1 -1 -1 -1 -1 -1 -1 -1 -1 -1 -1 -1 -1 -1 -1 -1
11 12 14 16 15 14 8 7 7 7 8 4 4 9 8 4 2 1 1 1 1 0 0 0 -0 -0 -0 0 -1 -1 -1 -1 -1 -1 -1 -1 -1 -1 -1 -1 -1 -1 -1 -1 -1 -1 -1 -1 -1
11 14 16 15 14 13 8 9 6 4 6 6 5 5 4 3 2 2 2 2 2 1 1 0 1 0 -0 -0 -0 -1 -1 -1 -1 -1 -1 -0 -0 0 -0 -1 0 -1 -1 -1 -1 -1 -1 -1 -1
12 15 14 12 12 13 11 8 7 7 7 7 6 4 3 4 3 3 4 4 4 3 2 2 2 1 -0 -1 -0 0 1 0 -0 0 -0 -0 -0 1 0 1 -1 -1 -1 -1 -1 -1 -1 -1 -0
13 13 12 11 11 11 9 7 6 8 9 7 7 5 4 3 3 4 4 3 3 2 2 2 3 2 1 1 1 2 2 1 1 0 -0 -0 -1 1 2 1 -0 -0 -1 -0 -1 -1 -1 -0 0
11 10 10 10 10 10 9 6 8 7 7 5 4 4 5 5 6 5 4 3 2 2 2 1 1 1 1 0 1 2 2 2 2 1 -0 -0 0 0 2 0 -0 -0 -0 -0 -0 -0 -0 -0 0
12 10 9 10 7 7 6 8 8 7 5 4 4 4 5 5 5 5 5 3 2 3 3 2 1 2 3 3 4 4 2 2 1 0 -1 -0 0 2 2 1 -0 -0 -1 -0 2 0 -0 -0 0
10 10 9 9 7 7 8 8 7 7 5 5 5 5 5 6 6 6 6 6 4 4 4 4 2 3 3 3 3 3 2 2 1 1 -0 -0 0 1 0 0 0 -0 -0 -0 0 -0 0 0 -0
8 11 10 8 8 8 7 10 10 6 5 6 6 6 6 5 5 6 6 6 6 5 5 5 3 2 2 2 3 3 2 2 3 3 1 0 0 1 2 3 2 1 0 -0 -0 -0 0 0 0
11 11 13 11 8 8 8 14 9 6 6 7 6 6 6 6 6 6 6 6 6 6 6 5 5 5 4 3 2 3 1 2 3 3 3 4 2 2 0 0 0 -0 -0 -0 0 0 1 1 1
12 14 14 12 9 8 10 12 8 6 7 7 7 8 8 8 8 7 6 6 6 6 6 7 7 6 5 4 3 4 4 3 5 5 5 5 4 4 4 3 3 2 1 2 1 1 1 2 2
14 14 13 13 10 10 11 12 9 7 7 8 8 9 8 8 7 6 6 6 6 6 6 6 7 6 6 6 4 4 6 5 5 6 6 6 6 6 6 5 6 5 4 4 4 4 2 2 2
12 13 13 10 9 11 12 11 10 8 8 9 9 8 8 7 7 7 6 6 7 7 7 7 7 7 7 6 6 5 7 7 7 8 7 7 6 6 7 6 6 6 5 4 4 3 3 2 3
12 13 14 11 9 11 11 12 9 8 8 8 8 9 8 8 8 7 7 6 6 7 7 8 8 8 8 8 8 8 8 8 8 8 8 7 6 6 6 7 7 7 7 7 6 5 4 3 2
12 13 13 13 11 10 11 13 11 9 8 8 9 8 8 8 8 8 7 7 6 6 7 7 7 7 8 8 8 8 8 8 9 9 9 8 7 6 6 7 7 8 8 7 7 6 6 5 3
13 10 10 11 13 17 11 18 13 10 10 9 9 10 8 9 8 8 7 8 7 7 6 7 7 8 8 8 9 10 10 11 10 10 10 9 8 8 7 6 7 8 8 8 8 6 7 6 6
11 9 11 11 13 14 15 17 16 11 12 12 10 9 9 9 8 8 7 7 7 7 8 8 9 9 9 10 10 11 11 11 11 11 10 10 8 7 7 7 7 8 8 8 7 7 7 7 7
9 11 11 13 15 17 15 15 16 14 12 11 11 9 9 9 9 8 8 8 8 8 8 8 8 9 10 10 10 11 11 11 10 10 10 9 9 8 8 7 7 7 7 7 7 6 7 6 7
11 14 17 16 17 17 13 14 15 11 9 9 10 10 9 9 9 8 9 9 9 8 8 8 8 9 9 9 9 9 9 10 10 10 10 10 9 9 7 7 7 7 6 6 6 6 6 6 6
13 14 16 18 19 16 12 19 15 9 8 9 9 9 9 9 10 9 9 9 9 8 8 8 8 9 9 8 9 8 9 9 9 9 9 9 9 8 7 6 6 6 5 4 4 3 3 3 3
13 15 13 15 16 17 16 15 11 10 11 9 10 10 10 10 10 10 10 9 9 9 8 8 9 9 9 9 9 9 9 8 9 9 8 8 8 6 6 6 6 6 5 5 5 4 3 3 3
12 11 15 16 18 19 16 18 16 13 12 10 10 10 10 10 11 10 10 10 9 9 9 9 9 9 9 9 9 8 8 8 8 7 8 8 7 7 7 7 6 6 6 6 6 6 5 6 6
12 14 14 15 15 18 19 16 11 11 10 10 10 10 10 11 11 11 11 10 10 9 9 9 9 9 8 8 8 8 8 8 9 8 7 8 7 6 5 6 6 6 6 6 7 6 6 7 8
11 13 14 16 17 16 16 16 10 9 9 9 9 9 11 11 11 11 11 10 10 10 10 9 9 8 8 8 9 9 8 9 8 8 7 7 6 5 5 6 7 7 7 7 7 7 7 7 8